Change the Weather History Date:

Friday, March 15, 2013

  Actual Average (KBGD) Record (KBGD)
Temperature  
Mean Temperature 60 °F 49 °F  
Max Temperature 81 °F 63 °F 85 °F (2012)
Min Temperature 39 °F 36 °F 19 °F (1949)
Degree Days  
Heating Degree Days 5 16  
Month to date heating degree days 270  
Since 1 July heating degree days 3263  
Cooling Degree Days 0 0  
Month to date cooling degree days 0  
Year to date cooling degree days 0  
Growing Degree Days 10 (Base 50)    
Moisture  
Dew Point 25 °F    
Average Humidity 35    
Maximum Humidity 63    
Minimum Humidity 9    
Precipitation  
Precipitation 0.00 in 0.04 in 1.05 in (1998)
Month to date precipitation 0.65  
Year to date precipitation 1.86  
Snow  
Snow 0.00 in - 1.50 in (1969)
Month to date snowfall  
Since 1 July snowfall  
Snow Depth -    
Sea Level Pressure  
Sea Level Pressure 29.99 in    
Wind  
Wind Speed 9 mph (SW)    
Max Wind Speed 17 mph    
Max Gust Speed 21 mph    
Visibility 10 miles    
Events      
T = Trace of Precipitation, MM = Missing Value Source: NWS Daily Summary

Daily Weather History Graph

Daily Weather History Graph

Search for Another Location

Airport or City:

Trip Planner

Search our weather history database for the weather conditions in past years. The results will help you decide how hot, cold, wet, or windy it might be!

Date:

Astronomy

Mar. 15, 2013 Rise Set
Actual Time 7:58 AM CDT 7:55 PM CDT
Civil Twilight 7:32 AM CDT 8:21 PM CDT
Nautical Twilight 7:03 AM CDT 8:51 PM CDT
Astronomical Twilight 6:33 AM CDT 9:21 PM CDT
Moon 9:58 AM CDT (3/15) No Moon Set
Length of Visible Light 12h 48m
Length of Day
11h 57m
Waxing Crescent, 15% of the Moon is Illuminated
Mar 15
Waxing Crescent
Mar 19
First Quarter
Mar 27
Full
Apr 2
Last Quarter
Apr 10
New

Hourly Weather History & Observations

Time (CDT) Temp. Windchill Dew Point Humidity Pressure Visibility Wind Dir Wind Speed Gust Speed Precip Events Conditions
12:15 AM 45.5 °F 41.3 °F 25.9 °F 46% 30.16 in 10.0 mi SSW 8.1 mph - N/A   Clear
12:35 AM 43.9 °F 39.9 °F 25.9 °F 49% 30.16 in 10.0 mi SSW 6.9 mph - N/A   Clear
1:15 AM 48.9 °F - 27.0 °F 43% 30.15 in 10.0 mi South 8.1 mph - N/A   Clear
1:35 AM 43.2 °F 37.9 °F 26.4 °F 52% 30.15 in 10.0 mi SSW 9.2 mph - N/A   Clear
1:55 AM 45.0 °F 39.3 °F 27.5 °F 50% 30.14 in 10.0 mi SW 11.5 mph - N/A   Clear
2:15 AM 45.0 °F 39.7 °F 28.6 °F 53% 30.14 in 10.0 mi SW 10.4 mph - N/A   Clear
2:35 AM 43.9 °F 38.3 °F 29.1 °F 56% 30.13 in 10.0 mi SW 10.4 mph - N/A   Clear
2:55 AM 45.3 °F 40.1 °F 29.8 °F 55% 30.12 in 10.0 mi SW 10.4 mph - N/A   Clear
3:15 AM 44.8 °F 39.4 °F 29.7 °F 55% 30.11 in 10.0 mi SW 10.4 mph - N/A   Clear
3:35 AM 43.7 °F 37.3 °F 29.3 °F 57% 30.11 in 10.0 mi SW 12.7 mph - N/A   Clear
3:55 AM 43.0 °F 36.8 °F 29.3 °F 59% 30.10 in 10.0 mi SW 11.5 mph - N/A   Clear
4:15 AM 45.1 °F 39.9 °F 30.0 °F 55% 30.10 in 10.0 mi WSW 10.4 mph - N/A   Clear
4:35 AM 43.5 °F 38.3 °F 29.7 °F 58% 30.08 in 10.0 mi WSW 9.2 mph - N/A   Clear
4:55 AM 40.3 °F 33.9 °F 28.4 °F 63% 30.07 in 10.0 mi WSW 10.4 mph - N/A   Clear
5:15 AM 39.6 °F 34.0 °F 27.5 °F 62% 30.07 in 10.0 mi WSW 8.1 mph - N/A   Clear
5:35 AM 41.0 °F 36.4 °F 27.1 °F 58% 30.07 in 10.0 mi WSW 6.9 mph - N/A   Clear
5:55 AM 40.1 °F 34.7 °F 26.6 °F 59% 30.07 in 10.0 mi WSW 8.1 mph - N/A   Clear
6:15 AM 39.4 °F 32.7 °F 25.9 °F 58% 30.07 in 10.0 mi West 10.4 mph - N/A   Clear
6:35 AM 41.2 °F 35.0 °F 26.1 °F 55% 30.07 in 10.0 mi West 10.4 mph - N/A   Clear
6:55 AM 40.8 °F 34.1 °F 25.7 °F 55% 30.06 in 10.0 mi West 11.5 mph - N/A   Clear
7:15 AM 41.5 °F 35.4 °F 26.2 °F 55% 30.06 in 10.0 mi West 10.4 mph - N/A   Clear
7:35 AM 40.8 °F 34.5 °F 26.2 °F 56% 30.06 in 10.0 mi West 10.4 mph - N/A   Clear
7:55 AM 41.0 °F 34.3 °F 26.2 °F 56% 30.07 in 10.0 mi West 11.5 mph - N/A   Clear
8:15 AM 40.5 °F 34.6 °F 25.9 °F 56% 30.06 in 10.0 mi West 9.2 mph - N/A   Clear
8:35 AM 42.1 °F 37.1 °F 26.4 °F 54% 30.06 in 10.0 mi West 8.1 mph - N/A   Clear
8:55 AM 45.7 °F 41.5 °F 27.3 °F 49% 30.06 in 10.0 mi West 8.1 mph - N/A   Clear
9:15 AM 48.7 °F - 28.0 °F 45% 30.06 in 10.0 mi West 6.9 mph - N/A   Clear
9:35 AM 53.4 °F - 28.6 °F 38% 30.06 in 10.0 mi WSW 9.2 mph - N/A   Clear
10:55 AM 67.5 °F - 27.7 °F 23% 30.03 in 10.0 mi West 16.1 mph - N/A   Clear
11:15 AM 70.5 °F - 27.1 °F 20% 30.03 in 10.0 mi WSW 17.3 mph 20.7 mph N/A   Clear
11:35 AM 70.3 °F - 27.9 °F 21% 30.02 in 10.0 mi West 16.1 mph - N/A   Clear
11:55 AM 71.8 °F - 27.0 °F 19% 30.01 in 10.0 mi WSW 16.1 mph - N/A   Clear
12:15 PM 73.2 °F - 25.3 °F 17% 30.01 in 10.0 mi West 13.8 mph - N/A   Clear
12:35 PM 74.3 °F - 25.5 °F 16% 30.00 in 10.0 mi SW 10.4 mph - N/A   Clear
12:55 PM 75.4 °F - 25.9 °F 16% 30.00 in 10.0 mi West 10.4 mph - N/A   Clear
1:55 PM 77.2 °F - 27.1 °F 16% 29.96 in 10.0 mi SSW 10.4 mph - N/A   Clear
2:15 PM 78.1 °F - 27.1 °F 15% 29.95 in 10.0 mi WSW 4.6 mph - N/A   Clear
2:35 PM 76.8 °F - 27.5 °F 16% 29.94 in 10.0 mi SW 9.2 mph - N/A   Clear
3:35 PM 80.2 °F - 23.4 °F 12% 29.91 in 10.0 mi WSW 6.9 mph - N/A   Clear
3:55 PM 80.1 °F - 21.7 °F 12% 29.90 in 10.0 mi West 3.5 mph - N/A   Clear
4:15 PM 80.4 °F - 20.1 °F 11% 29.89 in 10.0 mi WSW 4.6 mph - N/A   Clear
4:35 PM 81.1 °F - 19.2 °F 10% 29.89 in 10.0 mi NNW 3.5 mph - N/A   Clear
4:55 PM 81.0 °F - 18.1 °F 10% 29.88 in 10.0 mi NNW 8.1 mph - N/A   Clear
5:35 PM 81.0 °F - 17.2 °F 9% 29.87 in 10.0 mi Calm Calm - N/A   Clear
5:55 PM 80.8 °F - 17.2 °F 9% 29.87 in 10.0 mi North 4.6 mph - N/A   Clear
6:55 PM 78.8 °F - 19.6 °F 11% 29.85 in 10.0 mi SW 3.5 mph - N/A   Clear
7:15 PM 76.6 °F - 17.6 °F 11% 29.85 in 10.0 mi South 3.5 mph - N/A   Clear
7:35 PM 72.7 °F - 22.5 °F 15% 29.84 in 10.0 mi SSE 6.9 mph - N/A   Clear
7:55 PM 70.5 °F - 24.1 °F 17% 29.84 in 10.0 mi South 6.9 mph - N/A   Clear
8:35 PM 66.0 °F - 20.1 °F 17% 29.84 in 10.0 mi SSE 5.8 mph - N/A   Clear
9:15 PM 62.4 °F - 19.9 °F 20% 29.85 in 10.0 mi South 5.8 mph - N/A   Clear
9:35 PM 59.2 °F - 20.8 °F 23% 29.85 in 10.0 mi SSW 8.1 mph - N/A   Clear
9:55 PM 56.5 °F - 21.2 °F 25% 29.84 in 10.0 mi SSW 10.4 mph - N/A   Clear
10:15 PM 56.1 °F - 21.2 °F 26% 29.84 in 10.0 mi South 10.4 mph - N/A   Clear
10:35 PM 56.3 °F - 20.1 °F 24% 29.83 in 10.0 mi SSW 10.4 mph - N/A   Clear
10:55 PM 55.8 °F - 19.8 °F 25% 29.83 in 10.0 mi SSW 8.1 mph - N/A   Clear
11:15 PM 52.0 °F - 21.2 °F 30% 29.83 in 10.0 mi SSW 11.5 mph - N/A   Clear
11:35 PM 50.7 °F - 21.0 °F 31% 29.82 in 10.0 mi SSW 10.4 mph - N/A   Clear
11:55 PM 51.8 °F - 21.7 °F 31% 29.82 in 10.0 mi SW 10.4 mph - N/A   Clear